Time,TemperatureF,DewpointF,PressureIn,WindDirection,WindDirectionDegrees,WindSpeedMPH,WindSpeedGustMPH,Humidity,HourlyPrecipIn,Conditions,Clouds,dailyrainin,SolarRadiationWatts/m^2,SoftwareType,DateUTC
2013-06-01 00:00:00,55.9,51.1,29.51,SSW,204,3.0,3.0,84,0.00,,,0.00,0,Wunderground v.1.15,2013-06-01 05:00:00,
2013-06-01 00:05:00,55.7,51.3,29.51,SSW,213,3.0,3.0,85,0.00,,,0.00,0,Wunderground v.1.15,2013-06-01 05:05:00,
2013-06-01 00:15:00,55.6,51.2,29.51,SW,223,3.0,6.0,85,0.00,,,0.00,0,Wunderground v.1.15,2013-06-01 05:15:00,
2013-06-01 00:20:00,55.7,51.3,29.51,SW,229,3.0,5.0,85,0.00,,,0.00,0,Wunderground v.1.15,2013-06-01 05:20:00,
2013-06-01 00:25:00,55.7,51.3,29.51,SSW,200,3.0,5.0,85,0.00,,,0.00,0,Wunderground v.1.15,2013-06-01 05:25:00,
2013-06-01 00:30:00,55.7,51.3,29.51,SSW,207,4.0,5.0,85,0.00,,,0.00,0,Wunderground v.1.15,2013-06-01 05:30:00,
2013-06-01 00:35:00,55.8,51.4,29.51,SSW,202,4.0,5.0,85,0.00,,,0.00,0,Wunderground v.1.15,2013-06-01 05:35:00,
2013-06-01 00:40:00,55.9,51.5,29.51,SSW,211,4.0,4.0,85,0.00,,,0.00,0,Wunderground v.1.15,2013-06-01 05:40:00,
2013-06-01 00:45:00,56.0,51.6,29.51,SSW,202,4.0,4.0,85,0.00,,,0.00,0,Wunderground v.1.15,2013-06-01 05:45:00,
2013-06-01 00:55:00,56.0,51.6,29.51,SSW,203,3.0,5.0,85,0.00,,,0.00,0,Wunderground v.1.15,2013-06-01 05:55:00,
2013-06-01 01:00:00,56.1,51.7,29.51,SSE,167,4.0,4.0,85,0.00,,,0.00,0,Wunderground v.1.15,2013-06-01 06:00:00,
2013-06-01 01:05:00,56.1,51.7,29.51,SW,219,4.0,4.0,85,0.00,,,0.00,0,Wunderground v.1.15,2013-06-01 06:05:00,
2013-06-01 01:14:00,56.1,51.3,29.51,SSW,198,4.0,4.0,84,0.00,,,0.00,0,Wunderground v.1.15,2013-06-01 06:14:00,
2013-06-01 01:20:00,56.1,51.7,29.51,WSW,239,3.0,3.0,85,0.00,,,0.00,0,Wunderground v.1.15,2013-06-01 06:20:00,
2013-06-01 01:30:00,56.1,51.7,29.51,SSW,196,2.0,5.0,85,0.00,,,0.00,0,Wunderground v.1.15,2013-06-01 06:30:00,
2013-06-01 01:40:00,56.0,51.6,29.51,SSW,209,3.0,3.0,85,0.00,,,0.00,0,Wunderground v.1.15,2013-06-01 06:40:00,
2013-06-01 01:45:00,55.9,51.5,29.51,South,169,3.0,3.0,85,0.00,,,0.00,0,Wunderground v.1.15,2013-06-01 06:45:00,
2013-06-01 01:50:00,55.9,51.5,29.51,SSW,200,3.0,3.0,85,0.00,,,0.00,0,Wunderground v.1.15,2013-06-01 06:50:00,
2013-06-01 02:00:00,55.8,51.4,29.51,South,179,2.0,3.0,85,0.00,,,0.00,0,Wunderground v.1.15,2013-06-01 07:00:00,
2013-06-01 02:05:00,55.7,51.6,29.51,SSW,197,2.0,3.0,86,0.00,,,0.00,0,Wunderground v.1.15,2013-06-01 07:05:00,
2013-06-01 02:15:00,55.6,51.5,29.51,SSW,205,2.0,4.0,86,0.00,,,0.00,0,Wunderground v.1.15,2013-06-01 07:15:00,
2013-06-01 02:24:00,55.5,51.4,29.51,SSW,202,3.0,5.0,86,0.00,,,0.00,0,Wunderground v.1.15,2013-06-01 07:24:00,
2013-06-01 02:30:00,55.5,51.4,29.51,South,189,3.0,3.0,86,0.00,,,0.00,0,Wunderground v.1.15,2013-06-01 07:30:00,
2013-06-01 02:40:00,55.4,51.3,29.50,SSW,196,3.0,5.0,86,0.00,,,0.00,0,Wunderground v.1.15,2013-06-01 07:40:00,
2013-06-01 02:45:00,55.3,51.2,29.51,SW,221,3.0,5.0,86,0.00,,,0.00,0,Wunderground v.1.15,2013-06-01 07:45:00,
2013-06-01 02:50:00,55.3,51.2,29.51,SSW,201,3.0,4.0,86,0.00,,,0.00,0,Wunderground v.1.15,2013-06-01 07:50:00,
2013-06-01 02:59:00,55.1,51.3,29.51,SW,215,3.0,5.0,87,0.00,,,0.00,0,Wunderground v.1.15,2013-06-01 07:59:00,
2013-06-01 03:05:00,55.0,51.2,29.50,SSW,196,3.0,5.0,87,0.00,,,0.00,0,Wunderground v.1.15,2013-06-01 08:05:00,
2013-06-01 03:15:00,54.9,51.1,29.50,SSW,204,3.0,4.0,87,0.00,,,0.00,0,Wunderground v.1.15,2013-06-01 08:15:00,
2013-06-01 03:25:00,54.8,51.3,29.50,SSW,210,3.0,5.0,88,0.00,,,0.00,0,Wunderground v.1.15,2013-06-01 08:25:00,
2013-06-01 03:30:00,54.8,51.3,29.50,SSW,209,3.0,4.0,88,0.00,,,0.00,0,Wunderground v.1.15,2013-06-01 08:30:00,
2013-06-01 03:40:00,54.7,51.2,29.50,SSW,208,3.0,3.0,88,0.00,,,0.00,0,Wunderground v.1.15,2013-06-01 08:40:00,
2013-06-01 03:45:00,54.7,51.5,29.50,SW,223,3.0,4.0,89,0.00,,,0.00,0,Wunderground v.1.15,2013-06-01 08:45:00,
2013-06-01 03:50:00,54.6,51.4,29.50,South,174,2.0,2.0,89,0.00,,,0.00,0,Wunderground v.1.15,2013-06-01 08:50:00,
2013-06-01 03:55:00,54.6,51.4,29.50,South,180,2.0,3.0,89,0.00,,,0.00,0,Wunderground v.1.15,2013-06-01 08:55:00,
2013-06-01 04:05:00,54.5,51.3,29.51,South,181,2.0,2.0,89,0.00,,,0.00,0,Wunderground v.1.15,2013-06-01 09:05:00,
2013-06-01 04:15:00,54.4,51.5,29.51,SSW,200,2.0,4.0,90,0.00,,,0.00,0,Wunderground v.1.15,2013-06-01 09:15:00,
2013-06-01 04:20:00,54.4,51.5,29.51,WSW,238,2.0,4.0,90,0.00,,,0.00,0,Wunderground v.1.15,2013-06-01 09:20:00,
2013-06-01 04:25:00,54.3,51.4,29.51,WSW,252,3.0,4.0,90,0.00,,,0.00,0,Wunderground v.1.15,2013-06-01 09:25:00,
2013-06-01 04:30:00,54.4,51.5,29.51,West,264,2.0,2.0,90,0.00,,,0.00,0,Wunderground v.1.15,2013-06-01 09:30:00,
2013-06-01 04:40:00,54.5,51.6,29.51,WSW,244,2.0,2.0,90,0.00,,,0.00,0,Wunderground v.1.15,2013-06-01 09:40:00,
2013-06-01 04:45:00,54.6,51.7,29.52,SW,217,2.0,2.0,90,0.00,,,0.00,0,Wunderground v.1.15,2013-06-01 09:45:00,
2013-06-01 04:55:00,54.6,52.0,29.52,SW,215,1.0,2.0,91,0.00,,,0.00,0,Wunderground v.1.15,2013-06-01 09:55:00,
2013-06-01 05:00:00,54.7,52.1,29.52,SW,220,1.0,1.0,91,0.00,,,0.00,0,Wunderground v.1.15,2013-06-01 10:00:00,
2013-06-01 05:05:00,54.8,52.2,29.52,SSW,203,1.0,2.0,91,0.00,,,0.00,0,Wunderground v.1.15,2013-06-01 10:05:00,
2013-06-01 05:14:00,55.0,52.4,29.52,SW,218,2.0,3.0,91,0.00,,,0.00,0,Wunderground v.1.15,2013-06-01 10:14:00,
2013-06-01 05:20:00,55.0,52.4,29.52,South,189,2.0,3.0,91,0.00,,,0.00,0,Wunderground v.1.15,2013-06-01 10:20:00,
2013-06-01 05:25:00,55.1,52.5,29.53,SW,214,2.0,3.0,91,0.00,,,0.00,0,Wunderground v.1.15,2013-06-01 10:25:00,
2013-06-01 05:30:00,55.1,52.8,29.53,SW,216,2.0,2.0,92,0.00,,,0.00,0,Wunderground v.1.15,2013-06-01 10:30:00,
2013-06-01 05:40:00,55.0,52.7,29.53,SW,215,2.0,4.0,92,0.00,,,0.00,0,Wunderground v.1.15,2013-06-01 10:40:00,
2013-06-01 05:45:00,55.0,53.0,29.53,SSW,204,2.0,4.0,93,0.00,,,0.00,0,Wunderground v.1.15,2013-06-01 10:45:00,
2013-06-01 05:54:00,55.0,53.0,29.54,East,98,1.0,1.0,93,0.00,,,0.00,0,Wunderground v.1.15,2013-06-01 10:54:00,
2013-06-01 06:00:00,55.0,53.0,29.54,East,98,1.0,1.0,93,0.00,,,0.00,0,Wunderground v.1.15,2013-06-01 11:00:00,
2013-06-01 06:05:00,55.0,53.0,29.54,NE,42,1.0,1.0,93,0.00,,,0.00,0,Wunderground v.1.15,2013-06-01 11:05:00,
2013-06-01 06:14:00,54.9,53.2,29.54,ENE,61,0.0,2.0,94,0.00,,,0.00,9,Wunderground v.1.15,2013-06-01 11:14:00,
2013-06-01 06:19:00,54.9,53.2,29.54,SSW,208,1.0,1.0,94,0.00,,,0.00,14,Wunderground v.1.15,2013-06-01 11:19:00,
2013-06-01 06:25:00,54.8,53.1,29.54,SSW,208,1.0,1.0,94,0.00,,,0.00,14,Wunderground v.1.15,2013-06-01 11:25:00,
2013-06-01 06:30:00,54.9,53.2,29.54,WSW,249,1.0,1.0,94,0.00,,,0.00,16,Wunderground v.1.15,2013-06-01 11:30:00,
2013-06-01 06:40:00,54.9,53.5,29.55,NW,305,1.0,2.0,95,0.00,,,0.00,23,Wunderground v.1.15,2013-06-01 11:40:00,
2013-06-01 06:45:00,54.9,53.5,29.54,WSW,246,1.0,2.0,95,0.00,,,0.00,26,Wunderground v.1.15,2013-06-01 11:45:00,
2013-06-01 06:50:00,55.0,53.6,29.55,WSW,250,1.0,1.0,95,0.00,,,0.00,32,Wunderground v.1.15,2013-06-01 11:50:00,
2013-06-01 06:55:00,55.0,53.6,29.55,West,269,1.0,1.0,95,0.00,,,0.00,33,Wunderground v.1.15,2013-06-01 11:55:00,
2013-06-01 07:05:00,55.2,53.8,29.54,WSW,238,2.0,2.0,95,0.00,,,0.00,56,Wunderground v.1.15,2013-06-01 12:05:00,
2013-06-01 07:15:00,55.5,54.1,29.55,WSW,257,1.0,2.0,95,0.00,,,0.00,37,Wunderground v.1.15,2013-06-01 12:15:00,
2013-06-01 07:25:00,55.7,54.3,29.55,NW,319,1.0,1.0,95,0.00,,,0.00,70,Wunderground v.1.15,2013-06-01 12:25:00,
2013-06-01 07:30:00,55.8,54.4,29.55,NW,311,2.0,2.0,95,0.00,,,0.00,62,Wunderground v.1.15,2013-06-01 12:30:00,
2013-06-01 07:40:00,56.2,54.5,29.56,NNW,333,1.0,1.0,94,0.00,,,0.00,98,Wunderground v.1.15,2013-06-01 12:40:00,
2013-06-01 07:45:00,56.4,54.7,29.56,NNW,328,1.0,2.0,94,0.00,,,0.00,118,Wunderground v.1.15,2013-06-01 12:45:00,
2013-06-01 07:50:00,56.6,55.2,29.56,NNW,343,1.0,1.0,95,0.00,,,0.00,70,Wunderground v.1.15,2013-06-01 12:50:00,
2013-06-01 07:55:00,56.8,55.1,29.57,NNW,342,1.0,1.0,94,0.00,,,0.00,70,Wunderground v.1.15,2013-06-01 12:55:00,
2013-06-01 08:05:00,57.1,55.4,29.57,North,355,2.0,4.0,94,0.00,,,0.00,98,Wunderground v.1.15,2013-06-01 13:05:00,
2013-06-01 08:15:00,57.4,55.4,29.58,North,5,2.0,2.0,93,0.00,,,0.00,91,Wunderground v.1.15,2013-06-01 13:15:00,
2013-06-01 08:20:00,57.6,55.6,29.58,WNW,284,2.0,5.0,93,0.00,,,0.00,77,Wunderground v.1.15,2013-06-01 13:20:00,
2013-06-01 08:30:00,58.1,56.1,29.58,North,355,2.0,2.0,93,0.00,,,0.00,81,Wunderground v.1.15,2013-06-01 13:30:00,
2013-06-01 08:40:00,58.5,55.9,29.58,NNW,342,3.0,3.0,91,0.00,,,0.00,104,Wunderground v.1.15,2013-06-01 13:40:00,
2013-06-01 08:45:00,58.6,56.0,29.59,North,355,3.0,3.0,91,0.00,,,0.00,109,Wunderground v.1.15,2013-06-01 13:45:00,
2013-06-01 08:50:00,58.7,56.1,29.59,NW,321,3.0,3.0,91,0.00,,,0.00,98,Wunderground v.1.15,2013-06-01 13:50:00,
2013-06-01 08:55:00,58.8,56.2,29.59,North,350,2.0,4.0,91,0.00,,,0.00,81,Wunderground v.1.15,2013-06-01 13:55:00,
2013-06-01 09:05:00,58.9,56.0,29.60,NNW,342,3.0,5.0,90,0.00,,,0.00,44,Wunderground v.1.15,2013-06-01 14:05:00,
2013-06-01 09:15:00,58.7,56.1,29.61,NNW,346,3.0,4.0,91,0.00,,,0.00,40,Wunderground v.1.15,2013-06-01 14:15:00,
2013-06-01 09:25:00,58.6,56.0,29.61,NNW,340,3.0,4.0,91,0.00,,,0.00,56,Wunderground v.1.15,2013-06-01 14:25:00,
2013-06-01 09:30:00,58.6,56.0,29.61,North,360,3.0,3.0,91,0.00,,,0.00,74,Wunderground v.1.15,2013-06-01 14:30:00,
2013-06-01 09:40:00,58.9,56.3,29.62,North,355,3.0,4.0,91,0.00,,,0.00,67,Wunderground v.1.15,2013-06-01 14:40:00,
2013-06-01 09:45:00,59.0,56.4,29.62,NNW,343,3.0,4.0,91,0.00,,,0.00,95,Wunderground v.1.15,2013-06-01 14:45:00,
2013-06-01 09:50:00,59.2,56.6,29.62,NNW,346,4.0,4.0,91,0.00,,,0.00,60,Wunderground v.1.15,2013-06-01 14:50:00,
2013-06-01 09:55:00,59.0,56.7,29.62,North,360,4.0,4.0,92,0.00,,,0.01,58,Wunderground v.1.15,2013-06-01 14:55:00,
2013-06-01 10:05:00,58.6,56.6,29.62,NNW,346,4.0,4.0,93,0.07,,,0.02,134,Wunderground v.1.15,2013-06-01 15:05:00,
2013-06-01 10:15:00,59.0,57.0,29.62,NW,319,4.0,4.0,93,0.00,,,0.02,220,Wunderground v.1.15,2013-06-01 15:15:00,
2013-06-01 10:20:00,59.5,57.2,29.63,North,355,4.0,5.0,92,0.00,,,0.02,315,Wunderground v.1.15,2013-06-01 15:20:00,
2013-06-01 10:30:00,61.1,58.5,29.62,North,355,4.0,6.0,91,0.00,,,0.02,169,Wunderground v.1.15,2013-06-01 15:30:00,
2013-06-01 10:40:00,60.4,56.8,29.63,NNW,344,4.0,4.0,88,0.00,,,0.02,46,Wunderground v.1.15,2013-06-01 15:40:00,
2013-06-01 10:45:00,60.0,56.7,29.63,NW,308,5.0,7.0,89,0.00,,,0.02,46,Wunderground v.1.15,2013-06-01 15:45:00,
2013-06-01 10:50:00,59.5,56.6,29.64,NW,326,5.0,7.0,90,0.00,,,0.02,84,Wunderground v.1.15,2013-06-01 15:50:00,
2013-06-01 10:55:00,59.0,56.1,29.64,WNW,302,6.0,7.0,90,0.00,,,0.02,171,Wunderground v.1.15,2013-06-01 15:55:00,
2013-06-01 11:00:00,58.7,55.8,29.64,WNW,298,6.0,6.0,90,0.00,,,0.02,188,Wunderground v.1.15,2013-06-01 16:00:00,
2013-06-01 11:05:00,58.4,55.5,29.64,NE,46,7.0,7.0,90,0.00,,,0.02,248,Wunderground v.1.15,2013-06-01 16:05:00,
2013-06-01 11:15:00,58.2,55.3,29.65,North,355,7.0,11.0,90,0.00,,,0.02,162,Wunderground v.1.15,2013-06-01 16:15:00,
2013-06-01 11:20:00,58.0,54.8,29.64,NW,326,7.0,7.0,89,0.00,,,0.02,165,Wunderground v.1.15,2013-06-01 16:20:00,
2013-06-01 11:35:00,60.2,56.6,29.65,NW,319,6.0,7.0,88,0.00,,,0.02,1018,Wunderground v.1.15,2013-06-01 16:35:00,
2013-06-01 11:45:00,60.7,55.8,29.66,WNW,286,8.0,11.0,84,0.00,,,0.02,285,Wunderground v.1.15,2013-06-01 16:45:00,
2013-06-01 11:50:00,60.0,55.2,29.66,NNW,329,8.0,8.0,84,0.00,,,0.02,366,Wunderground v.1.15,2013-06-01 16:50:00,
2013-06-01 11:55:00,59.6,54.8,29.67,NW,305,8.0,8.0,84,0.00,,,0.02,663,Wunderground v.1.15,2013-06-01 16:55:00,
2013-06-01 12:00:00,59.3,54.1,29.67,North,355,8.0,8.0,83,0.00,,,0.02,297,Wunderground v.1.15,2013-06-01 17:00:00,
2013-06-01 12:05:00,58.6,53.8,29.67,West,262,6.0,8.0,84,0.00,,,0.02,446,Wunderground v.1.15,2013-06-01 17:05:00,
2013-06-01 12:15:00,57.7,52.9,29.68,NW,307,6.0,7.0,84,0.00,,,0.02,352,Wunderground v.1.15,2013-06-01 17:15:00,
2013-06-01 12:20:00,58.1,53.3,29.68,WNW,288,7.0,7.0,84,0.00,,,0.02,1194,Wunderground v.1.15,2013-06-01 17:20:00,
2013-06-01 12:25:00,58.2,53.4,29.68,NW,313,8.0,8.0,84,0.00,,,0.02,316,Wunderground v.1.15,2013-06-01 17:25:00,
2013-06-01 12:35:00,59.5,53.7,29.69,NNE,17,8.0,12.0,81,0.00,,,0.02,684,Wunderground v.1.15,2013-06-01 17:35:00,
2013-06-01 12:44:00,58.2,52.7,29.69,NW,312,8.0,8.0,82,0.00,,,0.02,399,Wunderground v.1.15,2013-06-01 17:44:00,
2013-06-01 12:50:00,58.0,52.5,29.69,NNW,334,8.0,8.0,82,0.00,,,0.02,387,Wunderground v.1.15,2013-06-01 17:50:00,
2013-06-01 12:55:00,57.7,51.9,29.69,NW,322,8.0,8.0,81,0.00,,,0.02,385,Wunderground v.1.15,2013-06-01 17:55:00,
2013-06-01 13:00:00,57.5,51.7,29.70,NNW,341,8.0,13.0,81,0.00,,,0.02,295,Wunderground v.1.15,2013-06-01 18:00:00,
2013-06-01 13:05:00,57.2,52.1,29.70,NNW,333,8.0,13.0,83,0.00,,,0.02,315,Wunderground v.1.15,2013-06-01 18:05:00,
2013-06-01 13:15:00,56.8,51.4,29.70,NNW,344,7.0,11.0,82,0.00,,,0.02,373,Wunderground v.1.15,2013-06-01 18:15:00,
2013-06-01 13:20:00,57.3,51.9,29.70,NW,311,8.0,8.0,82,0.00,,,0.02,489,Wunderground v.1.15,2013-06-01 18:20:00,
2013-06-01 13:25:00,57.7,52.2,29.71,North,355,8.0,11.0,82,0.00,,,0.02,473,Wunderground v.1.15,2013-06-01 18:25:00,
2013-06-01 13:30:00,57.3,51.5,29.71,NNW,329,9.0,9.0,81,0.00,,,0.02,424,Wunderground v.1.15,2013-06-01 18:30:00,
2013-06-01 13:40:00,56.6,50.8,29.71,WNW,291,9.0,9.0,81,0.00,,,0.02,387,Wunderground v.1.15,2013-06-01 18:40:00,
2013-06-01 13:50:00,56.8,51.0,29.72,NNW,335,8.0,8.0,81,0.00,,,0.02,411,Wunderground v.1.15,2013-06-01 18:50:00,
2013-06-01 13:55:00,56.5,50.7,29.72,WNW,292,8.0,8.0,81,0.00,,,0.02,306,Wunderground v.1.15,2013-06-01 18:55:00,
2013-06-01 14:00:00,56.2,50.4,29.72,NNW,344,8.0,9.0,81,0.00,,,0.02,308,Wunderground v.1.15,2013-06-01 19:00:00,
2013-06-01 14:05:00,56.1,50.7,29.73,WNW,287,8.0,9.0,82,0.00,,,0.02,318,Wunderground v.1.15,2013-06-01 19:05:00,
2013-06-01 14:15:00,55.9,50.2,29.73,NNW,330,8.0,11.0,81,0.00,,,0.02,267,Wunderground v.1.15,2013-06-01 19:15:00,
2013-06-01 14:20:00,55.8,50.4,29.74,NNW,335,9.0,9.0,82,0.00,,,0.02,216,Wunderground v.1.15,2013-06-01 19:20:00,
2013-06-01 14:25:00,55.6,49.9,29.74,WNW,294,8.0,9.0,81,0.00,,,0.02,258,Wunderground v.1.15,2013-06-01 19:25:00,
2013-06-01 14:30:00,55.6,49.9,29.74,NNW,338,7.0,8.0,81,0.00,,,0.02,357,Wunderground v.1.15,2013-06-01 19:30:00,
2013-06-01 14:40:00,55.8,50.1,29.75,WNW,292,9.0,12.0,81,0.00,,,0.02,325,Wunderground v.1.15,2013-06-01 19:40:00,
2013-06-01 14:45:00,55.4,50.0,29.75,North,360,10.0,12.0,82,0.00,,,0.02,338,Wunderground v.1.15,2013-06-01 19:45:00,
2013-06-01 14:55:00,55.5,49.8,29.75,NW,326,10.0,15.0,81,0.00,,,0.02,434,Wunderground v.1.15,2013-06-01 19:55:00,
2013-06-01 15:00:00,55.5,50.1,29.76,NNW,336,11.0,14.0,82,0.00,,,0.02,381,Wunderground v.1.15,2013-06-01 20:00:00,
2013-06-01 15:05:00,55.4,49.7,29.76,NNW,337,11.0,14.0,81,0.00,,,0.02,371,Wunderground v.1.15,2013-06-01 20:05:00,
2013-06-01 15:14:00,56.0,49.9,29.76,NNW,330,11.0,12.0,80,0.00,,,0.02,408,Wunderground v.1.15,2013-06-01 20:14:00,
2013-06-01 15:19:00,55.2,49.5,29.77,NNW,348,10.0,10.0,81,0.00,,,0.02,346,Wunderground v.1.15,2013-06-01 20:19:00,
2013-06-01 15:25:00,54.9,49.2,29.77,NNW,346,11.0,13.0,81,0.00,,,0.02,387,Wunderground v.1.15,2013-06-01 20:25:00,
2013-06-01 15:30:00,55.1,49.0,29.77,North,11,10.0,13.0,80,0.00,,,0.02,327,Wunderground v.1.15,2013-06-01 20:30:00,
2013-06-01 15:40:00,55.0,49.3,29.77,NNE,32,10.0,14.0,81,0.00,,,0.02,399,Wunderground v.1.15,2013-06-01 20:40:00,
2013-06-01 15:45:00,55.5,49.1,29.77,NNW,341,10.0,14.0,79,0.00,,,0.02,429,Wunderground v.1.15,2013-06-01 20:45:00,
2013-06-01 15:50:00,55.9,49.1,29.77,NNW,338,9.0,9.0,78,0.00,,,0.02,390,Wunderground v.1.15,2013-06-01 20:50:00,
2013-06-01 15:59:00,55.8,49.4,29.78,North,5,8.0,10.0,79,0.00,,,0.02,306,Wunderground v.1.15,2013-06-01 20:59:00,
2013-06-01 16:05:00,55.7,48.9,29.78,North,11,8.0,10.0,78,0.00,,,0.02,364,Wunderground v.1.15,2013-06-01 21:05:00,
2013-06-01 16:15:00,55.6,48.5,29.78,NNW,336,10.0,11.0,77,0.00,,,0.02,322,Wunderground v.1.15,2013-06-01 21:15:00,
2013-06-01 16:25:00,55.6,48.5,29.79,NNW,341,11.0,11.0,77,0.00,,,0.02,318,Wunderground v.1.15,2013-06-01 21:25:00,
2013-06-01 16:30:00,55.5,48.1,29.79,NNW,331,11.0,11.0,76,0.00,,,0.02,295,Wunderground v.1.15,2013-06-01 21:30:00,
2013-06-01 16:40:00,55.5,48.8,29.80,North,349,9.0,9.0,78,0.00,,,0.02,295,Wunderground v.1.15,2013-06-01 21:40:00,
2013-06-01 16:45:00,55.8,48.3,29.80,North,355,9.0,9.0,76,0.00,,,0.02,272,Wunderground v.1.15,2013-06-01 21:45:00,
2013-06-01 16:54:00,55.6,48.2,29.80,NNW,340,9.0,9.0,76,0.00,,,0.02,234,Wunderground v.1.15,2013-06-01 21:54:00,
2013-06-01 17:00:00,55.4,48.0,29.81,WNW,289,9.0,9.0,76,0.00,,,0.02,192,Wunderground v.1.15,2013-06-01 22:00:00,
2013-06-01 17:05:00,55.3,48.2,29.81,NNW,345,8.0,15.0,77,0.00,,,0.02,206,Wunderground v.1.15,2013-06-01 22:05:00,
2013-06-01 17:14:00,55.2,48.1,29.81,North,349,10.0,14.0,77,0.00,,,0.02,169,Wunderground v.1.15,2013-06-01 22:14:00,
2013-06-01 17:19:00,55.0,48.3,29.82,NNE,15,9.0,9.0,78,0.00,,,0.02,171,Wunderground v.1.15,2013-06-01 22:19:00,
2013-06-01 17:25:00,55.0,48.3,29.82,NNE,33,9.0,11.0,78,0.00,,,0.02,176,Wunderground v.1.15,2013-06-01 22:25:00,
2013-06-01 17:30:00,55.1,48.4,29.82,NNW,338,10.0,12.0,78,0.00,,,0.02,272,Wunderground v.1.15,2013-06-01 22:30:00,
2013-06-01 17:40:00,55.3,48.2,29.82,NW,313,10.0,10.0,77,0.00,,,0.02,223,Wunderground v.1.15,2013-06-01 22:40:00,
2013-06-01 17:45:00,55.5,48.1,29.82,North,355,9.0,10.0,76,0.00,,,0.02,241,Wunderground v.1.15,2013-06-01 22:45:00,
2013-06-01 17:54:00,55.7,48.2,29.82,NNE,22,9.0,9.0,76,0.00,,,0.02,220,Wunderground v.1.15,2013-06-01 22:54:00,
2013-06-01 18:00:00,55.5,48.4,29.82,WNW,297,10.0,10.0,77,0.00,,,0.02,229,Wunderground v.1.15,2013-06-01 23:00:00,
2013-06-01 18:05:00,55.4,48.0,29.82,NW,311,10.0,10.0,76,0.00,,,0.02,178,Wunderground v.1.15,2013-06-01 23:05:00,
2013-06-01 18:14:00,55.1,47.7,29.83,NNE,15,11.0,14.0,76,0.00,,,0.02,186,Wunderground v.1.15,2013-06-01 23:14:00,
2013-06-01 18:20:00,54.9,47.5,29.83,NE,43,10.0,10.0,76,0.00,,,0.02,153,Wunderground v.1.15,2013-06-01 23:20:00,
2013-06-01 18:25:00,54.8,47.7,29.83,North,5,10.0,12.0,77,0.00,,,0.02,116,Wunderground v.1.15,2013-06-01 23:25:00,
2013-06-01 18:30:00,54.4,47.3,29.84,NW,312,11.0,13.0,77,0.00,,,0.02,98,Wunderground v.1.15,2013-06-01 23:30:00,
2013-06-01 18:40:00,54.0,47.0,29.84,NNW,346,11.0,11.0,77,0.00,,,0.02,105,Wunderground v.1.15,2013-06-01 23:40:00,
2013-06-01 18:50:00,54.0,47.0,29.84,WNW,291,11.0,11.0,77,0.00,,,0.02,79,Wunderground v.1.15,2013-06-01 23:50:00,
2013-06-01 18:55:00,54.0,47.3,29.85,NNW,344,11.0,11.0,78,0.00,,,0.02,81,Wunderground v.1.15,2013-06-01 23:55:00,
2013-06-01 19:00:00,54.0,47.0,29.85,North,355,11.0,12.0,77,0.00,,,0.02,60,Wunderground v.1.15,2013-06-02 00:00:00,
2013-06-01 19:05:00,53.8,46.8,29.85,North,355,11.0,17.0,77,0.00,,,0.02,69,Wunderground v.1.15,2013-06-02 00:05:00,
2013-06-01 19:15:00,53.7,46.7,29.85,NNW,344,11.0,13.0,77,0.00,,,0.02,58,Wunderground v.1.15,2013-06-02 00:15:00,
2013-06-01 19:20:00,53.6,46.6,29.85,NNE,15,11.0,11.0,77,0.00,,,0.02,58,Wunderground v.1.15,2013-06-02 00:20:00,
2013-06-01 19:25:00,53.5,46.5,29.85,NNW,332,11.0,11.0,77,0.00,,,0.02,53,Wunderground v.1.15,2013-06-02 00:25:00,
2013-06-01 19:30:00,53.3,45.9,29.86,NNW,342,11.0,13.0,76,0.00,,,0.02,53,Wunderground v.1.15,2013-06-02 00:30:00,
2013-06-01 19:40:00,53.4,46.0,29.86,NW,323,11.0,12.0,76,0.00,,,0.02,54,Wunderground v.1.15,2013-06-02 00:40:00,
2013-06-01 19:50:00,53.2,45.8,29.87,NNW,335,12.0,13.0,76,0.00,,,0.02,44,Wunderground v.1.15,2013-06-02 00:50:00,
2013-06-01 19:55:00,53.2,45.8,29.87,NNW,338,12.0,13.0,76,0.00,,,0.02,39,Wunderground v.1.15,2013-06-02 00:55:00,
2013-06-01 20:00:00,53.1,45.4,29.88,North,9,11.0,11.0,75,0.00,,,0.02,35,Wunderground v.1.15,2013-06-02 01:00:00,
2013-06-01 20:09:00,53.0,45.6,29.88,North,5,12.0,12.0,76,0.00,,,0.02,32,Wunderground v.1.15,2013-06-02 01:09:00,
2013-06-01 20:15:00,52.8,45.8,29.88,NNW,344,12.0,14.0,77,0.00,,,0.02,11,Wunderground v.1.15,2013-06-02 01:15:00,
2013-06-01 20:20:00,52.8,45.8,29.89,NNW,343,11.0,16.0,77,0.00,,,0.02,9,Wunderground v.1.15,2013-06-02 01:20:00,
2013-06-01 20:25:00,52.8,45.8,29.89,North,360,10.0,16.0,77,0.00,,,0.02,9,Wunderground v.1.15,2013-06-02 01:25:00,
2013-06-01 20:30:00,52.8,45.8,29.89,NNE,29,11.0,11.0,77,0.00,,,0.02,5,Wunderground v.1.15,2013-06-02 01:30:00,
2013-06-01 20:40:00,52.7,46.0,29.89,NNE,28,9.0,9.0,78,0.00,,,0.02,0,Wunderground v.1.15,2013-06-02 01:40:00,
2013-06-01 20:45:00,52.7,46.0,29.90,North,350,8.0,9.0,78,0.00,,,0.02,0,Wunderground v.1.15,2013-06-02 01:45:00,
2013-06-01 20:55:00,52.7,46.0,29.90,NNW,344,7.0,8.0,78,0.00,,,0.02,0,Wunderground v.1.15,2013-06-02 01:55:00,
2013-06-01 21:00:00,52.7,46.0,29.90,NNE,21,6.0,6.0,78,0.00,,,0.02,0,Wunderground v.1.15,2013-06-02 02:00:00,
2013-06-01 21:05:00,52.7,46.4,29.91,NNW,343,6.0,8.0,79,0.00,,,0.02,0,Wunderground v.1.15,2013-06-02 02:05:00,
2013-06-01 21:14:00,52.7,46.4,29.91,North,5,6.0,8.0,79,0.00,,,0.02,0,Wunderground v.1.15,2013-06-02 02:14:00,
2013-06-01 21:20:00,52.8,46.5,29.91,North,5,6.0,13.0,79,0.00,,,0.02,0,Wunderground v.1.15,2013-06-02 02:20:00,
2013-06-01 21:25:00,52.8,46.5,29.92,North,350,7.0,13.0,79,0.00,,,0.02,0,Wunderground v.1.15,2013-06-02 02:25:00,
2013-06-01 21:30:00,52.8,46.5,29.92,NNW,331,8.0,8.0,79,0.00,,,0.02,0,Wunderground v.1.15,2013-06-02 02:30:00,
2013-06-01 21:39:00,52.7,46.7,29.92,NNW,346,7.0,7.0,80,0.00,,,0.02,0,Wunderground v.1.15,2013-06-02 02:39:00,
2013-06-01 21:45:00,52.6,46.3,29.92,North,360,8.0,9.0,79,0.00,,,0.02,0,Wunderground v.1.15,2013-06-02 02:45:00,
2013-06-01 21:50:00,52.6,46.6,29.92,NNW,327,8.0,10.0,80,0.00,,,0.02,0,Wunderground v.1.15,2013-06-02 02:50:00,
2013-06-01 21:55:00,52.4,46.4,29.93,NNW,335,9.0,10.0,80,0.00,,,0.02,0,Wunderground v.1.15,2013-06-02 02:55:00,
2013-06-01 22:00:00,52.2,46.2,29.93,North,350,9.0,10.0,80,0.00,,,0.02,0,Wunderground v.1.15,2013-06-02 03:00:00,
2013-06-01 22:05:00,52.0,46.3,29.93,NNW,342,8.0,10.0,81,0.00,,,0.02,0,Wunderground v.1.15,2013-06-02 03:05:00,
2013-06-01 22:15:00,52.0,46.3,29.94,North,355,7.0,8.0,81,0.00,,,0.02,0,Wunderground v.1.15,2013-06-02 03:15:00,
2013-06-01 22:20:00,51.9,46.3,29.95,North,9,8.0,12.0,81,0.00,,,0.02,0,Wunderground v.1.15,2013-06-02 03:20:00,
2013-06-01 22:29:00,51.3,45.7,29.95,NNE,21,13.0,13.0,81,0.00,,,0.02,0,Wunderground v.1.15,2013-06-02 03:29:00,
2013-06-01 22:35:00,51.4,45.8,29.95,NNE,19,11.0,13.0,81,0.00,,,0.02,0,Wunderground v.1.15,2013-06-02 03:35:00,
2013-06-01 22:45:00,51.8,45.2,29.95,NNW,340,9.0,12.0,78,0.00,,,0.02,0,Wunderground v.1.15,2013-06-02 03:45:00,
2013-06-01 22:50:00,51.9,45.6,29.96,NNE,19,9.0,10.0,79,0.00,,,0.02,0,Wunderground v.1.15,2013-06-02 03:50:00,
2013-06-01 22:59:00,51.9,45.3,29.95,NNW,338,9.0,9.0,78,0.00,,,0.02,0,Wunderground v.1.15,2013-06-02 03:59:00,
2013-06-01 23:05:00,52.0,45.0,29.95,North,5,9.0,12.0,77,0.00,,,0.02,0,Wunderground v.1.15,2013-06-02 04:05:00,
2013-06-01 23:10:00,52.2,45.2,29.96,NNW,339,9.0,9.0,77,0.00,,,0.02,0,Wunderground v.1.15,2013-06-02 04:10:00,
2013-06-01 23:15:00,52.2,44.9,29.96,North,350,9.0,9.0,76,0.00,,,0.02,0,Wunderground v.1.15,2013-06-02 04:15:00,
2013-06-01 23:20:00,52.3,45.3,29.96,North,355,8.0,8.0,77,0.00,,,0.02,0,Wunderground v.1.15,2013-06-02 04:20:00,
2013-06-01 23:30:00,52.4,45.1,29.97,North,355,8.0,9.0,76,0.00,,,0.02,0,Wunderground v.1.15,2013-06-02 04:30:00,
2013-06-01 23:40:00,52.3,45.3,29.97,North,5,7.0,7.0,77,0.00,,,0.02,0,Wunderground v.1.15,2013-06-02 04:40:00,
2013-06-01 23:45:00,52.1,45.4,29.97,NNE,17,6.0,7.0,78,0.00,,,0.02,0,Wunderground v.1.15,2013-06-02 04:45:00,
2013-06-01 23:50:00,52.1,45.4,29.97,NW,321,6.0,6.0,78,0.00,,,0.02,0,Wunderground v.1.15,2013-06-02 04:50:00,
2013-06-01 23:55:00,52.1,45.8,29.98,NW,321,5.0,6.0,79,0.00,,,0.02,0,Wunderground v.1.15,2013-06-02 04:55:00,
2013-06-01 23:59:00,51.9,46.3,29.98,North,350,5.0,6.0,81,0.00,,,0.02,0,Wunderground v.1.15,2013-06-02 04:59:00,